Terminal Aerodrome Forecast
Issued by NWS

Home | Current Version | Previous Version | Text Only | Print | Product List | Glossary On
Versions: 1 2 3 4 5 6 7 8 9 10 11 12 13 14 15 16 17
000
FTAK31 PAFA 161320 AAA
TAFABT
TAF AMD
PABT 161320Z 1613/1712 26004KT P6SM SCT025 BKN040 BKN060
      TEMPO 1613/1615 -FZDZ
     FM162100 04004KT P6SM VCSH BKN035=

USA.gov is the U.S. government's official web portal to all federal, state and local government web resources and services.